Find OneWeb SL0046

NORAD ID: 45447 Int'l Des: 2020-020 Owner: ONEWEB Country: UK Constellation: oneweb operational
LEOCIRCULARPOLARONEWEB_TYPE

Live Position

Loading 3D Globe...

About OneWeb SL0046

Description loading...

Upcoming Passes

Passes for default location (London). Set your location on the main map for personalized predictions.

Altitude History

Loading altitude history...

Two-Line Element Set

1 45447U 20020Z 26105.81053986 -.00000331 00000-0 -96960-3 0 9994
2 45447 87.8927 33.4653 0001713 85.7837 274.3487 13.11413925294438
Epoch: Apr 15, 2026 • Age: 13 hours

Current Status

Altitude 1229.3 km
Velocity 7.25 km/s
Sub-Earth Point 75.08°N, 66.96°E
Launch Date Mar 21, 2020
Age 6 years
Type internet

Technical Details

Classification Payload
Mass 148.00 kg
Dry Mass 140.00 kg
Total Mass 148.00 kg
Length 1.30 m
Diameter 1.00 m
Span 5.00 m
Shape Trapezoid+2 pan
Manufacturer ONEWUS
Bus Type ARROW
Phase Status In Orbit
Owner/State ONEWEB/UK

Most Searched